Flag for Laos Weather past 2 weeks in Vientiane, Laos

Now
86 °F

Fog.


Feels Like: 93 °F
Forecast: 74 / 98 °F
Wind: 2 mph from South

Location: Vientiane Airport

Current Time: Mar 3, 2015 at 8:35:46 PM

Latest Report: Mar 3, 2015 at 8:00 PM


Visibility: 2 mi

Pressure: 29.65 "Hg

Humidity: 66%

Dew point: 73 °F

Location of VientianeLocation

Historic Weather in Vientiane — Graph

°F

Vientiane temperature yesterday

Maximum temperature yesterday: 90 °F (at 2:30 PM)
Minimum temperature yesterday: 73 °F (at 7:00 AM)
Average temperature yesterday: 83 °F

Past Weeks' High & Low Weather Summary

 TemperatureHumidityPressure
High97 °F (Feb 26, 3:30 PM)100% (Feb 19, 6:00 AM)30.01 "Hg (Feb 19, 6:00 AM)
Low68 °F (Feb 23, 6:00 AM)36% (Feb 28, 1:30 PM)29.65 "Hg (Mar 3, 3:30 PM)
Average81 °F69%29.85 "Hg
* Reported Feb 16 7:00 PM — Mar 3 7:30 PM, Vientiane, Weather by CustomWeather, © 2015

Note: Actual official high and low records may vary slightly from our data, if they occured in-between our weather recording intervals... More about our weather records

Advertising

Vientiane weather history for previous 24 hours

 ConditionsComfort  
Time TempWeatherWind HumidityBarometerVisibility
7:30 PM
Tue, Mar 3
88 °FFog.5 mph62%29.68 "Hg2 mi
7:00 PM90 °FFog.5 mph59%29.65 "Hg2 mi
4:30 PM95 °FClear.5 mph56%29.65 "Hg4 mi
4:00 PM95 °FClear.5 mph56%29.65 "Hg4 mi
3:30 PM95 °FPassing clouds.2 mph53%29.65 "Hg4 mi
1:30 PM93 °FClear.2 mph53%29.74 "Hg4 mi
1:00 PM91 °FClear.2 mph56%29.77 "Hg4 mi
10:30 AM82 °FClear.2 mph66%29.86 "Hg4 mi
10:00 AM81 °FFog.2 mph70%29.86 "Hg3 mi
9:30 AM81 °FFog.2 mph70%29.83 "Hg3 mi
9:00 AM79 °FFog.2 mph74%29.83 "Hg3 mi
8:30 AM77 °FFog.2 mph79%29.83 "Hg2 mi
8:00 AM75 °FFog.2 mph83%29.83 "Hg2 mi
7:30 AM75 °FFog.2 mph83%29.80 "Hg2 mi
7:00 AM75 °FFog.2 mph83%29.80 "Hg2 mi
6:30 AM73 °FFog.2 mph94%29.77 "Hg2 mi
6:00 AM73 °FFog.2 mph94%29.77 "Hg2 mi
11:00 PM
Mon, Mar 2
81 °FFog.2 mph79%29.80 "Hg2 mi
10:30 PM82 °FFog.2 mph74%29.80 "Hg2 mi
10:00 PM82 °FFog.2 mph74%29.80 "Hg2 mi
9:30 PM82 °FFog.2 mph74%29.80 "Hg2 mi
9:00 PM82 °FFog.2 mph74%29.80 "Hg2 mi
8:30 PM84 °FFog.2 mph70%29.77 "Hg2 mi
8:00 PM84 °FFog.2 mph70%29.77 "Hg2 mi
Weather by CustomWeather, © 2015

See weather overviewHow to use our weather pages